DELTA 1 DEB, 13539

Orbit data source: Space-Track

DELTA 1 DEB, 13539 is space debris in LEO originally from a launch on Thu, 29 Jul 1976 UTC launched from the Air Force Western Test Range (AFWTR). Debris objects in space refer to the collection of defunct objects orbiting the Earth. Examples of debris include non-operational satellites, rocket bodies, and fragments generated from explosions, collisions, or faulty payload assembly.

Loading next visibility...
Identifier
13539, 1976-077EM
Orbit
LEO
Country
Flag of USUS
Related business
Manufacturer
Unknown
Mission
Spacecraft
Bus & Motor
Unknown
Mass
Unknown
Launch date (UTC)
1976-07-29 (50 years ago)
Launch vehicle
Unknown
Launch site
Air Force Western Test Range (AFWTR)
Object type
Payload
Rocket body
Debris
Shape & HBR
Unknown shape, 1.1 m
Radar Cross Section
Medium (>0.1 m² and <1 m²)

Expand to show TLE details & history
Last TLE update: 12 hours ago

TLE from 12 hours ago
0 DELTA 1 DEB
1 13539U 76077EM  26255.64599519  .00000058  00000-0  14471-2 0  9998
2 13539 101.8724 314.3295 0409563 280.3720 240.0860 11.65441014963940
Epoch: 2026-09-12T15:30Z
TLE epoch observation values (Epoch: 2026-09-12T15:30:13.984Z)
Latitude
22.99056°
Longitude
-84.78698°
Altitude
2,019.685 km
Speed
6.817 km/s
True Right ascension
09h 17m 41s
True Declination
22° 53' 09"
Sunlit
Object was in daylight at epoch
Visualization orbit readout
Latitude
Unknown
Longitude
Unknown
Altitude
Unknown
Speed
Unknown
Apparent Right ascension
Unknown
Apparent Declination
Unknown
Sunlit
N/A
Visualization observer readout
Local Sidereal Time
19:40:12
Azimuth
Unknown
Elevation
Unknown
Doppler factor
Unknown
Orbital elements
Apogee altitude
2,173.524 km
Perigee altitude
1,500.596 km
Semi-major axis
8,215.197 km
Eccentricity
0.04096
Inclination
101.8724°
RAAN
314.3295°
Arg. of periapsis
280.372°
True anomaly
236.12254°
Mean anomaly
240.086°
Eccentric anomaly
238.09392°
Mean motion
2.91485 °/min
Orbital period
123.51 mins
BSTAR
0.0014471
Loading maneuver chart data...
Computing Atmospheric mass density...
Loading historical data...
Loading historical data...
Loading historical data...
Loading historical data...
Loading historical data...
Loading historical data...
Loading historical data...

Documentation

Showing up to 5 results
|